User: anonymous   Login
Location: St Andrew
(49.4460°N, 2.5750°W)
Time: 08:03:04
(UTC+01:00)
Language:

Iridium 66 - Orbit

View from above orbital plane
View from above orbital plane
View from above satellite
View from above satellite

Ground track
Ground track

The orbit data is extracted from the following two-line orbital elements,

1 25289U 98021E   18109.94131395 -.00000041 +00000-0 -21690-4 0  9999
2 25289 086.3920 095.5656 0002324 084.9575 275.1886 14.34214532048997
Epoch (UTC): 19 April 2018 22:35:29
Eccentricity: 0.0002324
inclination: 86.3920°
perigee height: 776 km
apogee height: 779 km
right ascension of ascending node: 95.5656°
argument of perigee: 84.9575°
revolutions per day: 14.34214532
mean anomaly at epoch: 275.1886°
orbit number at epoch: 4899

The dashed part of the orbit path shows where the satellite is in the earth's shadow,  

DLR